Time,TemperatureF,DewpointF,PressureIn,WindDirection,WindDirectionDegrees,WindSpeedMPH,WindSpeedGustMPH,Humidity,HourlyPrecipIn,Conditions,Clouds,dailyrainin,SoftwareType,DateUTC
2013-06-28 00:14:00,70.5,65.5,31.74,North,0,0.0,0.0,84,0.00,,OVC011,0.00,VWS V14.00,2013-06-28 04:14:00,
2013-06-28 00:29:00,70.5,65.5,31.74,North,0,0.0,0.0,84,0.00,,OVC011,0.00,VWS V14.00,2013-06-28 04:29:00,
2013-06-28 00:44:00,70.3,65.3,31.74,North,0,0.0,0.0,84,0.00,,OVC011,0.00,VWS V14.00,2013-06-28 04:44:00,
2013-06-28 00:59:00,70.5,65.5,31.74,North,0,0.0,0.0,84,0.00,,OVC016,0.00,VWS V14.00,2013-06-28 04:59:00,
2013-06-28 01:14:00,70.5,65.5,31.74,North,0,0.0,0.0,84,0.00,,OVC016,0.00,VWS V14.00,2013-06-28 05:14:00,
2013-06-28 01:30:00,70.5,65.5,31.74,North,0,0.0,0.0,84,0.00,,OVC016,0.00,VWS V14.00,2013-06-28 05:30:00,
2013-06-28 01:45:00,70.3,65.3,31.74,North,0,0.0,0.0,84,0.00,,OVC016,0.00,VWS V14.00,2013-06-28 05:45:00,
2013-06-28 02:00:00,70.2,65.1,31.74,North,0,0.0,0.0,84,0.00,,OVC018,0.00,VWS V14.00,2013-06-28 06:00:00,
2013-06-28 02:15:00,70.2,65.1,31.74,North,0,0.0,0.0,84,0.00,,OVC018,0.00,VWS V14.00,2013-06-28 06:15:00,
2013-06-28 02:30:00,70.2,65.1,31.74,North,0,0.0,0.0,84,0.00,,OVC018,0.00,VWS V14.00,2013-06-28 06:30:00,
2013-06-28 02:45:00,70.2,65.1,31.74,North,0,0.0,0.0,84,0.00,,OVC018,0.00,VWS V14.00,2013-06-28 06:45:00,
2013-06-28 03:00:00,70.0,65.3,31.74,North,0,0.0,0.0,85,0.00,,OVC065,0.00,VWS V14.00,2013-06-28 07:00:00,
2013-06-28 03:15:00,70.0,65.3,31.74,North,0,0.0,0.0,85,0.00,,OVC065,0.00,VWS V14.00,2013-06-28 07:15:00,
2013-06-28 03:44:00,69.8,65.1,31.74,North,0,0.0,0.0,85,0.00,,BKN065,0.00,VWS V14.00,2013-06-28 07:44:00,
2013-06-28 03:59:00,69.8,65.1,31.74,North,0,0.0,0.0,85,0.00,,BKN065,0.00,VWS V14.00,2013-06-28 07:59:00,
2013-06-28 04:14:00,69.8,65.1,31.74,North,0,0.0,0.0,85,0.00,,BKN065,0.00,VWS V14.00,2013-06-28 08:14:00,
2013-06-28 04:29:00,69.6,65.2,31.74,North,0,0.0,0.0,86,0.00,,BKN065,0.00,VWS V14.00,2013-06-28 08:29:00,
2013-06-28 04:44:00,69.6,65.2,31.74,North,0,0.0,0.0,86,0.00,,BKN065,0.00,VWS V14.00,2013-06-28 08:44:00,
2013-06-28 04:59:00,69.3,64.9,31.74,North,0,0.0,0.0,86,0.00,,,0.00,VWS V14.00,2013-06-28 08:59:00,
2013-06-28 05:14:00,69.1,64.7,31.74,North,0,0.0,0.0,86,0.00,,,0.00,VWS V14.00,2013-06-28 09:14:00,
2013-06-28 05:29:00,68.9,64.6,31.74,North,0,0.0,0.0,86,0.00,,,0.00,VWS V14.00,2013-06-28 09:29:00,
2013-06-28 05:44:00,69.1,65.1,31.74,North,0,0.0,0.0,87,0.00,,,0.00,VWS V14.00,2013-06-28 09:44:00,
2013-06-28 05:59:00,69.1,64.7,31.74,North,0,0.0,0.0,86,0.00,,OVC110,0.00,VWS V14.00,2013-06-28 09:59:00,
2013-06-28 06:14:00,69.1,64.7,31.74,North,0,0.0,0.0,86,0.00,,OVC110,0.00,VWS V14.00,2013-06-28 10:14:00,
2013-06-28 06:29:00,69.3,64.9,31.74,North,0,0.0,0.0,86,0.00,,OVC110,0.00,VWS V14.00,2013-06-28 10:29:00,
2013-06-28 06:44:00,69.6,65.6,31.74,North,0,0.0,0.0,87,0.00,,OVC110,0.00,VWS V14.00,2013-06-28 10:44:00,
2013-06-28 06:59:00,70.2,65.8,31.74,North,0,0.0,0.0,86,0.00,,,0.00,VWS V14.00,2013-06-28 10:59:00,
2013-06-28 07:14:00,71.4,67.0,31.74,North,0,0.0,0.0,86,0.00,,,0.00,VWS V14.00,2013-06-28 11:14:00,
2013-06-28 07:29:00,71.6,66.9,31.74,North,0,0.0,0.0,85,0.00,,,0.00,VWS V14.00,2013-06-28 11:29:00,
2013-06-28 07:45:00,71.6,65.5,31.74,North,0,0.0,0.0,81,0.00,,,0.00,VWS V14.00,2013-06-28 11:45:00,
2013-06-28 08:00:00,72.9,63.3,31.74,North,0,0.0,0.0,72,0.00,,BKN095,0.00,VWS V14.00,2013-06-28 12:00:00,
2013-06-28 08:15:00,73.9,63.1,31.74,North,0,0.0,0.0,69,0.00,,BKN095,0.00,VWS V14.00,2013-06-28 12:15:00,
2013-06-28 08:30:00,74.3,63.1,31.74,North,0,0.0,0.0,68,0.00,,BKN095,0.00,VWS V14.00,2013-06-28 12:30:00,
2013-06-28 08:45:00,74.3,61.3,31.74,North,0,0.0,0.0,64,0.00,,CLR,0.00,VWS V14.00,2013-06-28 12:45:00,
2013-06-28 09:00:00,74.5,61.1,31.74,North,0,0.0,0.0,63,0.00,,CLR,0.00,VWS V14.00,2013-06-28 13:00:00,
2013-06-28 09:15:00,75.6,62.1,31.74,North,0,0.0,0.0,63,0.00,,CLR,0.00,VWS V14.00,2013-06-28 13:15:00,
2013-06-28 09:30:00,76.3,60.0,31.74,North,0,0.0,0.0,57,0.00,,CLR,0.00,VWS V14.00,2013-06-28 13:30:00,
2013-06-28 09:45:00,76.6,59.8,31.74,North,0,0.0,0.0,56,0.00,,SCT020,0.00,VWS V14.00,2013-06-28 13:45:00,
2013-06-28 10:00:00,77.7,60.8,31.74,North,0,0.0,0.0,56,0.00,,SCT020,0.00,VWS V14.00,2013-06-28 14:00:00,
2013-06-28 10:15:00,79.3,52.3,31.74,North,0,0.0,0.0,39,0.00,,BKN020,0.00,VWS V14.00,2013-06-28 14:15:00,
2013-06-28 10:30:00,79.9,52.0,31.74,North,0,0.0,0.0,38,0.00,,BKN020,0.00,VWS V14.00,2013-06-28 14:30:00,
2013-06-28 10:45:00,79.9,49.0,31.74,North,0,0.0,0.0,34,0.00,,BKN028,0.00,VWS V14.00,2013-06-28 14:45:00,
2013-06-28 11:00:00,79.3,47.0,31.74,North,0,0.0,0.0,32,0.00,,BKN028,0.00,VWS V14.00,2013-06-28 15:00:00,
2013-06-28 11:15:00,77.7,45.5,31.74,North,0,0.0,0.0,32,0.00,,BKN028,0.00,VWS V14.00,2013-06-28 15:15:00,
2013-06-28 11:30:00,78.3,46.0,31.74,North,0,0.0,0.0,32,0.00,,BKN028,0.00,VWS V14.00,2013-06-28 15:30:00,
2013-06-28 11:44:00,79.0,45.8,31.74,North,0,0.0,0.0,31,0.00,,SCT026,0.00,VWS V14.00,2013-06-28 15:44:00,
2013-06-28 11:59:00,80.4,41.4,31.74,North,0,0.0,0.0,25,0.00,,SCT026,0.00,VWS V14.00,2013-06-28 15:59:00,
2013-06-28 12:14:00,80.8,40.7,31.74,North,0,0.0,0.0,24,0.00,,SCT026,0.00,VWS V14.00,2013-06-28 16:14:00,
2013-06-28 12:29:00,81.5,43.3,31.74,North,0,0.0,0.0,26,0.00,,SCT026,0.00,VWS V14.00,2013-06-28 16:29:00,
2013-06-28 12:44:00,83.3,39.3,31.74,North,0,0.0,0.0,21,0.00,,CLR,0.00,VWS V14.00,2013-06-28 16:44:00,
2013-06-28 12:59:00,85.1,39.6,31.74,North,0,0.0,0.0,20,0.00,,CLR,0.00,VWS V14.00,2013-06-28 16:59:00,
2013-06-28 13:14:00,85.5,38.5,31.74,North,0,0.0,0.0,19,0.00,,CLR,0.00,VWS V14.00,2013-06-28 17:14:00,
2013-06-28 13:29:00,87.3,38.6,31.74,North,0,0.0,0.0,18,0.00,,CLR,0.00,VWS V14.00,2013-06-28 17:29:00,
2013-06-28 13:44:00,83.1,37.9,31.74,North,0,0.0,0.0,20,0.00,,CLR,0.00,VWS V14.00,2013-06-28 17:44:00,
2013-06-28 14:00:00,83.3,39.3,31.74,North,0,0.0,0.0,21,0.00,,FEW029,0.00,VWS V14.00,2013-06-28 18:00:00,
2013-06-28 14:14:00,84.4,37.7,31.74,North,0,0.0,0.0,19,0.00,,FEW029,0.00,VWS V14.00,2013-06-28 18:14:00,
2013-06-28 14:29:00,82.0,39.5,31.74,North,0,0.0,0.0,22,0.00,,FEW029,0.00,VWS V14.00,2013-06-28 18:29:00,
2013-06-28 14:45:00,80.8,40.7,31.74,North,0,0.0,0.0,24,0.00,,FEW035,0.00,VWS V14.00,2013-06-28 18:45:00,
2013-06-28 15:00:00,80.2,43.3,31.74,North,0,0.0,0.0,27,0.00,,FEW035,0.00,VWS V14.00,2013-06-28 19:00:00,
2013-06-28 15:15:00,80.1,45.9,31.74,North,0,0.0,0.0,30,0.00,,FEW035,0.00,VWS V14.00,2013-06-28 19:15:00,
2013-06-28 15:30:00,80.2,49.3,31.74,North,0,0.0,0.0,34,0.00,,FEW035,0.00,VWS V14.00,2013-06-28 19:30:00,
2013-06-28 15:45:00,78.3,62.8,31.74,North,0,0.0,0.0,59,0.00,,SCT095,0.00,VWS V14.00,2013-06-28 19:45:00,
2013-06-28 16:00:00,76.8,65.0,31.74,North,0,0.0,0.0,67,0.00,,SCT095,0.00,VWS V14.00,2013-06-28 20:00:00,
2013-06-28 16:15:00,76.6,66.5,31.74,North,0,0.0,0.0,71,0.00,,SCT095,0.00,VWS V14.00,2013-06-28 20:15:00,
2013-06-28 16:30:00,74.8,66.4,31.74,North,0,0.0,0.0,75,0.00,,SCT095,0.00,VWS V14.00,2013-06-28 20:30:00,
2013-06-28 16:45:00,74.8,67.2,31.74,North,0,0.0,0.0,77,0.00,,-RA,0.00,VWS V14.00,2013-06-28 20:45:00,
2013-06-28 17:00:00,76.3,68.6,31.74,North,0,0.0,0.0,77,0.00,,-RA,0.00,VWS V14.00,2013-06-28 21:00:00,
2013-06-28 17:15:00,75.7,64.9,31.74,North,0,0.0,0.0,69,0.00,,-RA,0.00,VWS V14.00,2013-06-28 21:15:00,
2013-06-28 17:30:00,75.6,65.1,31.74,North,0,0.0,0.0,70,0.00,,-RA,0.00,VWS V14.00,2013-06-28 21:30:00,
2013-06-28 17:45:00,75.2,64.8,31.74,North,0,0.0,0.0,70,0.00,,-RA,0.00,VWS V14.00,2013-06-28 21:45:00,
2013-06-28 18:00:00,77.5,63.5,31.74,North,0,0.0,0.0,62,0.00,,-RA,0.00,VWS V14.00,2013-06-28 22:00:00,
2013-06-28 18:15:00,81.7,64.5,31.74,North,0,0.0,0.0,56,0.00,,BKN095,0.00,VWS V14.00,2013-06-28 22:15:00,
2013-06-28 18:30:00,79.9,46.6,31.74,North,0,0.0,0.0,31,0.00,,BKN095,0.00,VWS V14.00,2013-06-28 22:30:00,
2013-06-28 18:45:00,78.6,47.9,31.74,North,0,0.0,0.0,34,0.00,,BKN100,0.00,VWS V14.00,2013-06-28 22:45:00,
2013-06-28 19:00:00,81.5,58.8,31.74,North,0,0.0,0.0,46,0.00,,BKN100,0.00,VWS V14.00,2013-06-28 23:00:00,
2013-06-28 19:15:00,84.7,40.5,31.74,North,0,0.0,0.0,21,0.00,,BKN100,0.00,VWS V14.00,2013-06-28 23:15:00,
2013-06-28 19:30:00,79.9,39.9,31.74,North,0,0.0,0.0,24,0.00,,BKN100,0.00,VWS V14.00,2013-06-28 23:30:00,
2013-06-28 19:44:00,77.0,45.7,31.74,North,0,0.0,0.0,33,0.00,,BKN100,0.00,VWS V14.00,2013-06-28 23:44:00,
2013-06-28 19:59:00,74.3,63.1,31.74,North,0,0.0,0.0,68,0.00,,CLR,0.00,VWS V14.00,2013-06-28 23:59:00,
2013-06-28 20:14:00,73.6,63.6,31.74,North,0,0.0,0.0,71,0.00,,CLR,0.00,VWS V14.00,2013-06-29 00:14:00,
2013-06-28 20:29:00,72.7,63.5,31.74,North,0,0.0,0.0,73,0.00,,-RA,0.00,VWS V14.00,2013-06-29 00:29:00,
2013-06-28 20:44:00,71.6,64.4,31.74,North,0,0.0,0.0,78,0.00,,-RA,0.00,VWS V14.00,2013-06-29 00:44:00,
2013-06-28 20:59:00,71.2,64.4,31.74,North,0,0.0,0.0,79,0.00,,-RA,0.00,VWS V14.00,2013-06-29 00:59:00,
2013-06-28 21:14:00,70.7,64.2,31.74,North,0,0.0,0.0,80,0.00,,-RA,0.00,VWS V14.00,2013-06-29 01:14:00,
2013-06-28 21:29:00,70.2,64.8,31.74,North,0,0.0,0.0,83,0.00,,-RA,0.00,VWS V14.00,2013-06-29 01:29:00,
2013-06-28 21:44:00,70.0,64.9,31.74,North,0,0.0,0.0,84,0.00,,CLR,0.00,VWS V14.00,2013-06-29 01:44:00,
2013-06-28 21:59:00,70.0,64.9,31.74,North,0,0.0,0.0,84,0.00,,CLR,0.00,VWS V14.00,2013-06-29 01:59:00,
2013-06-28 22:14:00,69.6,64.9,31.74,North,0,0.0,0.0,85,0.00,,CLR,0.00,VWS V14.00,2013-06-29 02:14:00,
2013-06-28 22:29:00,69.3,64.9,31.74,North,0,0.0,0.0,86,0.00,,CLR,0.00,VWS V14.00,2013-06-29 02:29:00,
2013-06-28 22:44:00,68.9,64.6,31.74,North,0,0.0,0.0,86,0.00,,CLR,0.00,VWS V14.00,2013-06-29 02:44:00,
2013-06-28 22:59:00,68.7,64.7,31.74,North,0,0.0,0.0,87,0.00,,,0.00,VWS V14.00,2013-06-29 02:59:00,
2013-06-28 23:14:00,68.7,64.7,31.74,North,0,0.0,0.0,87,0.00,,,0.00,VWS V14.00,2013-06-29 03:14:00,
2013-06-28 23:29:00,68.9,64.9,31.74,North,0,0.0,0.0,87,0.00,,,0.00,VWS V14.00,2013-06-29 03:29:00,
2013-06-28 23:44:00,68.9,64.9,31.74,North,0,0.0,0.0,87,0.00,,,0.00,VWS V14.00,2013-06-29 03:44:00,
2013-06-28 23:59:00,68.7,65.0,31.74,North,0,0.0,0.0,88,0.00,,,0.00,VWS V14.00,2013-06-29 03:59:00,